Terminal Aerodrome Forecast
Issued by NWS Cleveland, OH

Home | Current Version | Previous Version | Graphics & Text | Print | Product List | Glossary On
Versions: 1 2 3 4 5 6 7 8 9 10 11 12 13 14 15 16 17
000
FTUS41 KCLE 261730
TAFTOL
TAF
KTOL 261730Z 2618/2718 16007KT P6SM SCT035 BKN050
     FM262200 18015G22KT P6SM VCTS BKN040CB OVC080
      TEMPO 2622/2624 22018G30KT 4SM -TSRA BKN025CB OVC040
     FM270100 20012G20KT P6SM SCT020
     FM270800 20012KT P6SM SCT008
     FM271500 21013KT P6SM SCT015 BKN035=

USA.gov is the U.S. government's official web portal to all federal, state and local government web resources and services.